owner,sensor,date,latitude,longitude,vertical_datum,sea_water_practical_salinity,qcFlag 
ENP,ioos.station.NOAA.NDBC:WRBF1:1,2019-09-01T00:00:00Z,25.0720,-80.7350,1.5,38.24,11111222 
ENP,ioos.station.NOAA.NDBC:WRBF1:1,2019-09-01T01:00:00Z,25.0720,-80.7350,1.5,38.25,11111222 
ENP,ioos.station.NOAA.NDBC:WRBF1:1,2019-09-01T02:00:00Z,25.0720,-80.7350,1.5,38.22,11111222 
ENP,ioos.station.NOAA.NDBC:WRBF1:1,2019-09-01T04:00:00Z,25.0720,-80.7350,1.5,37.89,11111222 
ENP,ioos.station.NOAA.NDBC:WRBF1:1,2019-09-01T05:00:00Z,25.0720,-80.7350,1.5,37.71,11111222 
ENP,ioos.station.NOAA.NDBC:WRBF1:1,2019-09-01T06:00:00Z,25.0720,-80.7350,1.5,37.75,11111222 
ENP,ioos.station.NOAA.NDBC:WRBF1:1,2019-09-01T07:00:00Z,25.0720,-80.7350,1.5,37.78,11111222 
ENP,ioos.station.NOAA.NDBC:WRBF1:1,2019-09-01T08:00:00Z,25.0720,-80.7350,1.5,37.83,11111222 
ENP,ioos.station.NOAA.NDBC:WRBF1:1,2019-09-01T09:00:00Z,25.0720,-80.7350,1.5,37.79,11111222 
ENP,ioos.station.NOAA.NDBC:WRBF1:1,2019-09-01T10:00:00Z,25.0720,-80.7350,1.5,37.77,11111222 
ENP,ioos.station.NOAA.NDBC:WRBF1:1,2019-09-01T11:00:00Z,25.0720,-80.7350,1.5,37.56,11111222 
ENP,ioos.station.NOAA.NDBC:WRBF1:1,2019-09-01T12:00:00Z,25.0720,-80.7350,1.5,37.47,11111222 
ENP,ioos.station.NOAA.NDBC:WRBF1:1,2019-09-01T13:00:00Z,25.0720,-80.7350,1.5,37.39,11111222 
ENP,ioos.station.NOAA.NDBC:WRBF1:1,2019-09-01T14:00:00Z,25.0720,-80.7350,1.5,37.27,11111222 
ENP,ioos.station.NOAA.NDBC:WRBF1:1,2019-09-01T15:00:00Z,25.0720,-80.7350,1.5,37.14,11111222 
ENP,ioos.station.NOAA.NDBC:WRBF1:1,2019-09-01T16:00:00Z,25.0720,-80.7350,1.5,36.92,11111222 
ENP,ioos.station.NOAA.NDBC:WRBF1:1,2019-09-01T17:00:00Z,25.0720,-80.7350,1.5,36.76,11111222 
ENP,ioos.station.NOAA.NDBC:WRBF1:1,2019-09-01T18:00:00Z,25.0720,-80.7350,1.5,36.7,11111222 
ENP,ioos.station.NOAA.NDBC:WRBF1:1,2019-09-01T19:00:00Z,25.0720,-80.7350,1.5,36.83,11111222 
ENP,ioos.station.NOAA.NDBC:WRBF1:1,2019-09-01T20:00:00Z,25.0720,-80.7350,1.5,36.9,11111222 
ENP,ioos.station.NOAA.NDBC:WRBF1:1,2019-09-01T21:00:00Z,25.0720,-80.7350,1.5,36.84,11111222 
ENP,ioos.station.NOAA.NDBC:WRBF1:1,2019-09-01T22:00:00Z,25.0720,-80.7350,1.5,36.76,11111222 
ENP,ioos.station.NOAA.NDBC:WRBF1:1,2019-09-01T23:00:00Z,25.0720,-80.7350,1.5,36.69,11111222 
ENP,ioos.station.NOAA.NDBC:WRBF1:1,2019-09-02T00:00:00Z,25.0720,-80.7350,1.5,36.61,11111222 
ENP,ioos.station.NOAA.NDBC:WRBF1:1,2019-09-02T01:00:00Z,25.0720,-80.7350,1.5,36.64,11111222 
ENP,ioos.station.NOAA.NDBC:WRBF1:1,2019-09-02T02:00:00Z,25.0720,-80.7350,1.5,36.65,11111222 
ENP,ioos.station.NOAA.NDBC:WRBF1:1,2019-09-02T04:00:00Z,25.0720,-80.7350,1.5,36.26,11111222 
ENP,ioos.station.NOAA.NDBC:WRBF1:1,2019-09-02T05:00:00Z,25.0720,-80.7350,1.5,36.18,11111222 
ENP,ioos.station.NOAA.NDBC:WRBF1:1,2019-09-02T06:00:00Z,25.0720,-80.7350,1.5,36.02,11111222 
ENP,ioos.station.NOAA.NDBC:WRBF1:1,2019-09-02T07:00:00Z,25.0720,-80.7350,1.5,36.05,11111222 
ENP,ioos.station.NOAA.NDBC:WRBF1:1,2019-09-02T08:00:00Z,25.0720,-80.7350,1.5,36.11,11111222 
ENP,ioos.station.NOAA.NDBC:WRBF1:1,2019-09-02T09:00:00Z,25.0720,-80.7350,1.5,36.08,11111222 
ENP,ioos.station.NOAA.NDBC:WRBF1:1,2019-09-02T10:00:00Z,25.0720,-80.7350,1.5,36.08,11111222 
ENP,ioos.station.NOAA.NDBC:WRBF1:1,2019-09-02T11:00:00Z,25.0720,-80.7350,1.5,36.12,11111222 
ENP,ioos.station.NOAA.NDBC:WRBF1:1,2019-09-02T12:00:00Z,25.0720,-80.7350,1.5,36.16,11111222 
ENP,ioos.station.NOAA.NDBC:WRBF1:1,2019-09-02T15:00:00Z,25.0720,-80.7350,1.5,36.25,11111222 
ENP,ioos.station.NOAA.NDBC:WRBF1:1,2019-09-02T16:00:00Z,25.0720,-80.7350,1.5,36.22,11111222 
ENP,ioos.station.NOAA.NDBC:WRBF1:1,2019-09-02T17:00:00Z,25.0720,-80.7350,1.5,36.28,11111222 
ENP,ioos.station.NOAA.NDBC:WRBF1:1,2019-09-02T18:00:00Z,25.0720,-80.7350,1.5,36.31,11111222 
ENP,ioos.station.NOAA.NDBC:WRBF1:1,2019-09-02T19:00:00Z,25.0720,-80.7350,1.5,36.36,11111222 
ENP,ioos.station.NOAA.NDBC:WRBF1:1,2019-09-02T20:00:00Z,25.0720,-80.7350,1.5,36.4,11111222 
ENP,ioos.station.NOAA.NDBC:WRBF1:1,2019-09-02T21:00:00Z,25.0720,-80.7350,1.5,36.41,11111222 
ENP,ioos.station.NOAA.NDBC:WRBF1:1,2019-09-02T22:00:00Z,25.0720,-80.7350,1.5,36.35,11111222 
ENP,ioos.station.NOAA.NDBC:WRBF1:1,2019-09-02T23:00:00Z,25.0720,-80.7350,1.5,36.34,11111222 
ENP,ioos.station.NOAA.NDBC:WRBF1:1,2019-09-03T00:00:00Z,25.0720,-80.7350,1.5,36.36,11111222 
ENP,ioos.station.NOAA.NDBC:WRBF1:1,2019-09-03T02:00:00Z,25.0720,-80.7350,1.5,36.39,11111222 
ENP,ioos.station.NOAA.NDBC:WRBF1:1,2019-09-03T04:00:00Z,25.0720,-80.7350,1.5,36.38,11111222 
ENP,ioos.station.NOAA.NDBC:WRBF1:1,2019-09-03T05:00:00Z,25.0720,-80.7350,1.5,36.42,11111222 
ENP,ioos.station.NOAA.NDBC:WRBF1:1,2019-09-03T06:00:00Z,25.0720,-80.7350,1.5,36.4,11111222 
ENP,ioos.station.NOAA.NDBC:WRBF1:1,2019-09-03T07:00:00Z,25.0720,-80.7350,1.5,36.42,11111222 
ENP,ioos.station.NOAA.NDBC:WRBF1:1,2019-09-03T08:00:00Z,25.0720,-80.7350,1.5,36.43,11111222 
ENP,ioos.station.NOAA.NDBC:WRBF1:1,2019-09-03T09:00:00Z,25.0720,-80.7350,1.5,36.43,11111222 
ENP,ioos.station.NOAA.NDBC:WRBF1:1,2019-09-03T10:00:00Z,25.0720,-80.7350,1.5,36.41,11111222 
ENP,ioos.station.NOAA.NDBC:WRBF1:1,2019-09-03T11:00:00Z,25.0720,-80.7350,1.5,36.43,11111222 
ENP,ioos.station.NOAA.NDBC:WRBF1:1,2019-09-03T12:00:00Z,25.0720,-80.7350,1.5,36.45,11111222 
ENP,ioos.station.NOAA.NDBC:WRBF1:1,2019-09-03T13:00:00Z,25.0720,-80.7350,1.5,36.45,11111222 
ENP,ioos.station.NOAA.NDBC:WRBF1:1,2019-09-03T14:00:00Z,25.0720,-80.7350,1.5,36.45,11111222 
ENP,ioos.station.NOAA.NDBC:WRBF1:1,2019-09-03T15:00:00Z,25.0720,-80.7350,1.5,36.43,11111222 
ENP,ioos.station.NOAA.NDBC:WRBF1:1,2019-09-03T16:00:00Z,25.0720,-80.7350,1.5,36.47,11111222 
ENP,ioos.station.NOAA.NDBC:WRBF1:1,2019-09-03T17:00:00Z,25.0720,-80.7350,1.5,36.4,11111222 
ENP,ioos.station.NOAA.NDBC:WRBF1:1,2019-09-03T18:00:00Z,25.0720,-80.7350,1.5,36.38,11111222 
ENP,ioos.station.NOAA.NDBC:WRBF1:1,2019-09-03T19:00:00Z,25.0720,-80.7350,1.5,36.41,11111222 
ENP,ioos.station.NOAA.NDBC:WRBF1:1,2019-09-03T20:00:00Z,25.0720,-80.7350,1.5,36.4,11111222 
ENP,ioos.station.NOAA.NDBC:WRBF1:1,2019-09-03T21:00:00Z,25.0720,-80.7350,1.5,36.39,11111222 
ENP,ioos.station.NOAA.NDBC:WRBF1:1,2019-09-03T22:00:00Z,25.0720,-80.7350,1.5,36.43,11111222 
ENP,ioos.station.NOAA.NDBC:WRBF1:1,2019-09-03T23:00:00Z,25.0720,-80.7350,1.5,36.53,11111222 
ENP,ioos.station.NOAA.NDBC:WRBF1:1,2019-09-04T00:00:00Z,25.0720,-80.7350,1.5,36.6,11111222 
ENP,ioos.station.NOAA.NDBC:WRBF1:1,2019-09-04T02:00:00Z,25.0720,-80.7350,1.5,36.8,11111222 
ENP,ioos.station.NOAA.NDBC:WRBF1:1,2019-09-04T04:00:00Z,25.0720,-80.7350,1.5,36.93,11111222 
ENP,ioos.station.NOAA.NDBC:WRBF1:1,2019-09-04T05:00:00Z,25.0720,-80.7350,1.5,36.94,11111222 
ENP,ioos.station.NOAA.NDBC:WRBF1:1,2019-09-04T06:00:00Z,25.0720,-80.7350,1.5,36.95,11111222 
ENP,ioos.station.NOAA.NDBC:WRBF1:1,2019-09-04T07:00:00Z,25.0720,-80.7350,1.5,36.93,11111222 
ENP,ioos.station.NOAA.NDBC:WRBF1:1,2019-09-04T08:00:00Z,25.0720,-80.7350,1.5,36.95,11111222 
ENP,ioos.station.NOAA.NDBC:WRBF1:1,2019-09-04T09:00:00Z,25.0720,-80.7350,1.5,36.94,11111222 
ENP,ioos.station.NOAA.NDBC:WRBF1:1,2019-09-04T10:00:00Z,25.0720,-80.7350,1.5,36.92,11111222 
ENP,ioos.station.NOAA.NDBC:WRBF1:1,2019-09-04T11:00:00Z,25.0720,-80.7350,1.5,36.93,11111222 
ENP,ioos.station.NOAA.NDBC:WRBF1:1,2019-09-04T12:00:00Z,25.0720,-80.7350,1.5,36.98,11111222 
ENP,ioos.station.NOAA.NDBC:WRBF1:1,2019-09-04T13:00:00Z,25.0720,-80.7350,1.5,37.03,11111222 
ENP,ioos.station.NOAA.NDBC:WRBF1:1,2019-09-04T14:00:00Z,25.0720,-80.7350,1.5,37.03,11111222 
ENP,ioos.station.NOAA.NDBC:WRBF1:1,2019-09-04T15:00:00Z,25.0720,-80.7350,1.5,37.04,11111222 
ENP,ioos.station.NOAA.NDBC:WRBF1:1,2019-09-04T16:00:00Z,25.0720,-80.7350,1.5,37.03,11111222 
ENP,ioos.station.NOAA.NDBC:WRBF1:1,2019-09-04T17:00:00Z,25.0720,-80.7350,1.5,37.03,11111222 
ENP,ioos.station.NOAA.NDBC:WRBF1:1,2019-09-04T18:00:00Z,25.0720,-80.7350,1.5,36.98,11111222 
ENP,ioos.station.NOAA.NDBC:WRBF1:1,2019-09-04T19:00:00Z,25.0720,-80.7350,1.5,36.95,11111222 
ENP,ioos.station.NOAA.NDBC:WRBF1:1,2019-09-04T20:00:00Z,25.0720,-80.7350,1.5,36.93,11111222 
ENP,ioos.station.NOAA.NDBC:WRBF1:1,2019-09-04T21:00:00Z,25.0720,-80.7350,1.5,36.93,11111222 
ENP,ioos.station.NOAA.NDBC:WRBF1:1,2019-09-04T22:00:00Z,25.0720,-80.7350,1.5,36.89,11111222 
ENP,ioos.station.NOAA.NDBC:WRBF1:1,2019-09-04T23:00:00Z,25.0720,-80.7350,1.5,36.9,11111222 
ENP,ioos.station.NOAA.NDBC:WRBF1:1,2019-09-05T00:00:00Z,25.0720,-80.7350,1.5,36.93,11111222 
ENP,ioos.station.NOAA.NDBC:WRBF1:1,2019-09-05T01:00:00Z,25.0720,-80.7350,1.5,36.94,11111222 
ENP,ioos.station.NOAA.NDBC:WRBF1:1,2019-09-05T02:00:00Z,25.0720,-80.7350,1.5,36.95,11111222 
ENP,ioos.station.NOAA.NDBC:WRBF1:1,2019-09-05T04:00:00Z,25.0720,-80.7350,1.5,36.99,11111222 
ENP,ioos.station.NOAA.NDBC:WRBF1:1,2019-09-05T05:00:00Z,25.0720,-80.7350,1.5,36.99,11111222 
ENP,ioos.station.NOAA.NDBC:WRBF1:1,2019-09-05T06:00:00Z,25.0720,-80.7350,1.5,37.01,11111222 
ENP,ioos.station.NOAA.NDBC:WRBF1:1,2019-09-05T07:00:00Z,25.0720,-80.7350,1.5,37.02,11111222 
ENP,ioos.station.NOAA.NDBC:WRBF1:1,2019-09-05T08:00:00Z,25.0720,-80.7350,1.5,37.06,11111222 
ENP,ioos.station.NOAA.NDBC:WRBF1:1,2019-09-05T09:00:00Z,25.0720,-80.7350,1.5,37.07,11111222 
ENP,ioos.station.NOAA.NDBC:WRBF1:1,2019-09-05T10:00:00Z,25.0720,-80.7350,1.5,37.14,11111222 
ENP,ioos.station.NOAA.NDBC:WRBF1:1,2019-09-05T11:00:00Z,25.0720,-80.7350,1.5,37.15,11111222 
ENP,ioos.station.NOAA.NDBC:WRBF1:1,2019-09-05T12:00:00Z,25.0720,-80.7350,1.5,37.15,11111222 
ENP,ioos.station.NOAA.NDBC:WRBF1:1,2019-09-05T13:00:00Z,25.0720,-80.7350,1.5,37.15,11111222 
ENP,ioos.station.NOAA.NDBC:WRBF1:1,2019-09-05T14:00:00Z,25.0720,-80.7350,1.5,37.15,11111222 
ENP,ioos.station.NOAA.NDBC:WRBF1:1,2019-09-05T15:00:00Z,25.0720,-80.7350,1.5,37.18,11111222 
ENP,ioos.station.NOAA.NDBC:WRBF1:1,2019-09-05T16:00:00Z,25.0720,-80.7350,1.5,37.2,11111222 
ENP,ioos.station.NOAA.NDBC:WRBF1:1,2019-09-05T17:00:00Z,25.0720,-80.7350,1.5,37.23,11111222 
ENP,ioos.station.NOAA.NDBC:WRBF1:1,2019-09-05T18:00:00Z,25.0720,-80.7350,1.5,37.23,11111222 
ENP,ioos.station.NOAA.NDBC:WRBF1:1,2019-09-05T19:00:00Z,25.0720,-80.7350,1.5,37.19,11111222 
ENP,ioos.station.NOAA.NDBC:WRBF1:1,2019-09-05T20:00:00Z,25.0720,-80.7350,1.5,37.18,11111222 
ENP,ioos.station.NOAA.NDBC:WRBF1:1,2019-09-05T21:00:00Z,25.0720,-80.7350,1.5,37.17,11111222 
ENP,ioos.station.NOAA.NDBC:WRBF1:1,2019-09-05T22:00:00Z,25.0720,-80.7350,1.5,37.18,11111222 
ENP,ioos.station.NOAA.NDBC:WRBF1:1,2019-09-05T23:00:00Z,25.0720,-80.7350,1.5,37.21,11111222 
ENP,ioos.station.NOAA.NDBC:WRBF1:1,2019-09-06T00:00:00Z,25.0720,-80.7350,1.5,37.23,11111222 
ENP,ioos.station.NOAA.NDBC:WRBF1:1,2019-09-06T02:00:00Z,25.0720,-80.7350,1.5,37.26,11111222 
ENP,ioos.station.NOAA.NDBC:WRBF1:1,2019-09-06T04:00:00Z,25.0720,-80.7350,1.5,37.32,11111222 
ENP,ioos.station.NOAA.NDBC:WRBF1:1,2019-09-06T06:00:00Z,25.0720,-80.7350,1.5,37.33,11111222 
ENP,ioos.station.NOAA.NDBC:WRBF1:1,2019-09-06T07:00:00Z,25.0720,-80.7350,1.5,37.37,11111222 
ENP,ioos.station.NOAA.NDBC:WRBF1:1,2019-09-06T08:00:00Z,25.0720,-80.7350,1.5,37.39,11111222 
ENP,ioos.station.NOAA.NDBC:WRBF1:1,2019-09-06T09:00:00Z,25.0720,-80.7350,1.5,37.41,11111222 
ENP,ioos.station.NOAA.NDBC:WRBF1:1,2019-09-06T10:00:00Z,25.0720,-80.7350,1.5,37.42,11111222 
ENP,ioos.station.NOAA.NDBC:WRBF1:1,2019-09-06T11:00:00Z,25.0720,-80.7350,1.5,37.42,11111222 
ENP,ioos.station.NOAA.NDBC:WRBF1:1,2019-09-06T12:00:00Z,25.0720,-80.7350,1.5,37.46,11111222 
ENP,ioos.station.NOAA.NDBC:WRBF1:1,2019-09-06T13:00:00Z,25.0720,-80.7350,1.5,37.45,11111222 
ENP,ioos.station.NOAA.NDBC:WRBF1:1,2019-09-06T14:00:00Z,25.0720,-80.7350,1.5,37.44,11111222 
ENP,ioos.station.NOAA.NDBC:WRBF1:1,2019-09-06T15:00:00Z,25.0720,-80.7350,1.5,37.4,11111222 
ENP,ioos.station.NOAA.NDBC:WRBF1:1,2019-09-06T16:00:00Z,25.0720,-80.7350,1.5,37.4,11111222 
ENP,ioos.station.NOAA.NDBC:WRBF1:1,2019-09-06T17:00:00Z,25.0720,-80.7350,1.5,37.4,11111222 
ENP,ioos.station.NOAA.NDBC:WRBF1:1,2019-09-06T18:00:00Z,25.0720,-80.7350,1.5,37.38,11111222 
ENP,ioos.station.NOAA.NDBC:WRBF1:1,2019-09-06T19:00:00Z,25.0720,-80.7350,1.5,37.38,11111222 
ENP,ioos.station.NOAA.NDBC:WRBF1:1,2019-09-06T20:00:00Z,25.0720,-80.7350,1.5,37.35,11111222 
ENP,ioos.station.NOAA.NDBC:WRBF1:1,2019-09-06T21:00:00Z,25.0720,-80.7350,1.5,37.33,11111222 
ENP,ioos.station.NOAA.NDBC:WRBF1:1,2019-09-06T22:00:00Z,25.0720,-80.7350,1.5,37.32,11111222 
ENP,ioos.station.NOAA.NDBC:WRBF1:1,2019-09-06T23:00:00Z,25.0720,-80.7350,1.5,37.36,11111222 
ENP,ioos.station.NOAA.NDBC:WRBF1:1,2019-09-07T00:00:00Z,25.0720,-80.7350,1.5,37.38,11111222 
ENP,ioos.station.NOAA.NDBC:WRBF1:1,2019-09-07T02:00:00Z,25.0720,-80.7350,1.5,37.46,11111222 
ENP,ioos.station.NOAA.NDBC:WRBF1:1,2019-09-07T04:00:00Z,25.0720,-80.7350,1.5,37.46,11111222 
ENP,ioos.station.NOAA.NDBC:WRBF1:1,2019-09-07T05:00:00Z,25.0720,-80.7350,1.5,37.46,11111222 
ENP,ioos.station.NOAA.NDBC:WRBF1:1,2019-09-07T06:00:00Z,25.0720,-80.7350,1.5,37.48,11111222 
ENP,ioos.station.NOAA.NDBC:WRBF1:1,2019-09-07T07:00:00Z,25.0720,-80.7350,1.5,37.47,11111222 
ENP,ioos.station.NOAA.NDBC:WRBF1:1,2019-09-07T08:00:00Z,25.0720,-80.7350,1.5,37.5,11111222 
ENP,ioos.station.NOAA.NDBC:WRBF1:1,2019-09-07T09:00:00Z,25.0720,-80.7350,1.5,37.5,11111222 
ENP,ioos.station.NOAA.NDBC:WRBF1:1,2019-09-07T10:00:00Z,25.0720,-80.7350,1.5,37.54,11111222 
ENP,ioos.station.NOAA.NDBC:WRBF1:1,2019-09-07T11:00:00Z,25.0720,-80.7350,1.5,37.59,11111222 
ENP,ioos.station.NOAA.NDBC:WRBF1:1,2019-09-07T12:00:00Z,25.0720,-80.7350,1.5,37.64,11111222 
ENP,ioos.station.NOAA.NDBC:WRBF1:1,2019-09-07T13:00:00Z,25.0720,-80.7350,1.5,37.68,11111222 
ENP,ioos.station.NOAA.NDBC:WRBF1:1,2019-09-07T14:00:00Z,25.0720,-80.7350,1.5,37.65,11111222 
ENP,ioos.station.NOAA.NDBC:WRBF1:1,2019-09-07T15:00:00Z,25.0720,-80.7350,1.5,37.62,11111222 
ENP,ioos.station.NOAA.NDBC:WRBF1:1,2019-09-07T16:00:00Z,25.0720,-80.7350,1.5,37.62,11111222 
ENP,ioos.station.NOAA.NDBC:WRBF1:1,2019-09-07T17:00:00Z,25.0720,-80.7350,1.5,37.61,11111222 
ENP,ioos.station.NOAA.NDBC:WRBF1:1,2019-09-07T18:00:00Z,25.0720,-80.7350,1.5,37.6,11111222 
ENP,ioos.station.NOAA.NDBC:WRBF1:1,2019-09-07T19:00:00Z,25.0720,-80.7350,1.5,37.59,11111222 
ENP,ioos.station.NOAA.NDBC:WRBF1:1,2019-09-07T20:00:00Z,25.0720,-80.7350,1.5,37.6,11111222 
ENP,ioos.station.NOAA.NDBC:WRBF1:1,2019-09-07T21:00:00Z,25.0720,-80.7350,1.5,37.6,11111222 
ENP,ioos.station.NOAA.NDBC:WRBF1:1,2019-09-07T22:00:00Z,25.0720,-80.7350,1.5,37.62,11111222 
ENP,ioos.station.NOAA.NDBC:WRBF1:1,2019-09-07T23:00:00Z,25.0720,-80.7350,1.5,37.63,11111222 
ENP,ioos.station.NOAA.NDBC:WRBF1:1,2019-09-08T00:00:00Z,25.0720,-80.7350,1.5,37.65,11111222 
ENP,ioos.station.NOAA.NDBC:WRBF1:1,2019-09-08T01:00:00Z,25.0720,-80.7350,1.5,37.64,11111222 
ENP,ioos.station.NOAA.NDBC:WRBF1:1,2019-09-08T02:00:00Z,25.0720,-80.7350,1.5,37.65,11111222 
ENP,ioos.station.NOAA.NDBC:WRBF1:1,2019-09-08T04:00:00Z,25.0720,-80.7350,1.5,37.71,11111222 
ENP,ioos.station.NOAA.NDBC:WRBF1:1,2019-09-08T05:00:00Z,25.0720,-80.7350,1.5,37.71,11111222 
ENP,ioos.station.NOAA.NDBC:WRBF1:1,2019-09-08T06:00:00Z,25.0720,-80.7350,1.5,37.73,11111222 
ENP,ioos.station.NOAA.NDBC:WRBF1:1,2019-09-08T07:00:00Z,25.0720,-80.7350,1.5,37.75,11111222 
ENP,ioos.station.NOAA.NDBC:WRBF1:1,2019-09-08T08:00:00Z,25.0720,-80.7350,1.5,37.75,11111222 
ENP,ioos.station.NOAA.NDBC:WRBF1:1,2019-09-08T09:00:00Z,25.0720,-80.7350,1.5,37.76,11111222 
ENP,ioos.station.NOAA.NDBC:WRBF1:1,2019-09-08T10:00:00Z,25.0720,-80.7350,1.5,37.75,11111222 
ENP,ioos.station.NOAA.NDBC:WRBF1:1,2019-09-08T11:00:00Z,25.0720,-80.7350,1.5,37.76,11111222 
ENP,ioos.station.NOAA.NDBC:WRBF1:1,2019-09-08T12:00:00Z,25.0720,-80.7350,1.5,37.79,11111222 
ENP,ioos.station.NOAA.NDBC:WRBF1:1,2019-09-08T13:00:00Z,25.0720,-80.7350,1.5,37.77,11111222 
ENP,ioos.station.NOAA.NDBC:WRBF1:1,2019-09-08T14:00:00Z,25.0720,-80.7350,1.5,37.79,11111222 
ENP,ioos.station.NOAA.NDBC:WRBF1:1,2019-09-08T15:00:00Z,25.0720,-80.7350,1.5,37.81,11111222 
ENP,ioos.station.NOAA.NDBC:WRBF1:1,2019-09-08T16:00:00Z,25.0720,-80.7350,1.5,37.85,11111222 
ENP,ioos.station.NOAA.NDBC:WRBF1:1,2019-09-08T17:00:00Z,25.0720,-80.7350,1.5,37.83,11111222 
ENP,ioos.station.NOAA.NDBC:WRBF1:1,2019-09-08T18:00:00Z,25.0720,-80.7350,1.5,37.83,11111222 
ENP,ioos.station.NOAA.NDBC:WRBF1:1,2019-09-08T19:00:00Z,25.0720,-80.7350,1.5,37.83,11111222 
ENP,ioos.station.NOAA.NDBC:WRBF1:1,2019-09-08T20:00:00Z,25.0720,-80.7350,1.5,37.85,11111222 
ENP,ioos.station.NOAA.NDBC:WRBF1:1,2019-09-08T21:00:00Z,25.0720,-80.7350,1.5,37.85,11111222 
ENP,ioos.station.NOAA.NDBC:WRBF1:1,2019-09-08T22:00:00Z,25.0720,-80.7350,1.5,37.86,11111222 
ENP,ioos.station.NOAA.NDBC:WRBF1:1,2019-09-08T23:00:00Z,25.0720,-80.7350,1.5,37.85,11111222 
ENP,ioos.station.NOAA.NDBC:WRBF1:1,2019-09-09T00:00:00Z,25.0720,-80.7350,1.5,37.86,11111222 
ENP,ioos.station.NOAA.NDBC:WRBF1:1,2019-09-09T01:00:00Z,25.0720,-80.7350,1.5,37.86,11111222 
ENP,ioos.station.NOAA.NDBC:WRBF1:1,2019-09-09T02:00:00Z,25.0720,-80.7350,1.5,37.87,11111222 
ENP,ioos.station.NOAA.NDBC:WRBF1:1,2019-09-09T04:00:00Z,25.0720,-80.7350,1.5,37.86,11111222 
ENP,ioos.station.NOAA.NDBC:WRBF1:1,2019-09-09T05:00:00Z,25.0720,-80.7350,1.5,37.87,11111222 
ENP,ioos.station.NOAA.NDBC:WRBF1:1,2019-09-09T06:00:00Z,25.0720,-80.7350,1.5,37.93,11111222 
ENP,ioos.station.NOAA.NDBC:WRBF1:1,2019-09-09T07:00:00Z,25.0720,-80.7350,1.5,38.09,11111222 
ENP,ioos.station.NOAA.NDBC:WRBF1:1,2019-09-09T08:00:00Z,25.0720,-80.7350,1.5,38.29,11111222 
ENP,ioos.station.NOAA.NDBC:WRBF1:1,2019-09-09T09:00:00Z,25.0720,-80.7350,1.5,38.3,11111222 
ENP,ioos.station.NOAA.NDBC:WRBF1:1,2019-09-09T10:00:00Z,25.0720,-80.7350,1.5,38.28,11111222 
ENP,ioos.station.NOAA.NDBC:WRBF1:1,2019-09-09T11:00:00Z,25.0720,-80.7350,1.5,38.27,11111222 
ENP,ioos.station.NOAA.NDBC:WRBF1:1,2019-09-09T12:00:00Z,25.0720,-80.7350,1.5,38.24,11111222 
ENP,ioos.station.NOAA.NDBC:WRBF1:1,2019-09-09T13:00:00Z,25.0720,-80.7350,1.5,38.21,11111222 
ENP,ioos.station.NOAA.NDBC:WRBF1:1,2019-09-09T14:00:00Z,25.0720,-80.7350,1.5,38.39,11111222 
ENP,ioos.station.NOAA.NDBC:WRBF1:1,2019-09-09T15:00:00Z,25.0720,-80.7350,1.5,38.59,11111222 
ENP,ioos.station.NOAA.NDBC:WRBF1:1,2019-09-09T16:00:00Z,25.0720,-80.7350,1.5,38.7,11111222 
ENP,ioos.station.NOAA.NDBC:WRBF1:1,2019-09-09T17:00:00Z,25.0720,-80.7350,1.5,38.63,11111222 
ENP,ioos.station.NOAA.NDBC:WRBF1:1,2019-09-09T21:00:00Z,25.0720,-80.7350,1.5,38.63,11111222 
ENP,ioos.station.NOAA.NDBC:WRBF1:1,2019-09-09T22:00:00Z,25.0720,-80.7350,1.5,38.6,11111222 
ENP,ioos.station.NOAA.NDBC:WRBF1:1,2019-09-09T23:00:00Z,25.0720,-80.7350,1.5,38.58,11111222 
ENP,ioos.station.NOAA.NDBC:WRBF1:1,2019-09-10T00:00:00Z,25.0720,-80.7350,1.5,38.63,11111222 
ENP,ioos.station.NOAA.NDBC:WRBF1:1,2019-09-10T01:00:00Z,25.0720,-80.7350,1.5,38.69,11111222 
ENP,ioos.station.NOAA.NDBC:WRBF1:1,2019-09-10T02:00:00Z,25.0720,-80.7350,1.5,38.78,11111222 
ENP,ioos.station.NOAA.NDBC:WRBF1:1,2019-09-10T04:00:00Z,25.0720,-80.7350,1.5,39.26,11111222 
ENP,ioos.station.NOAA.NDBC:WRBF1:1,2019-09-10T05:00:00Z,25.0720,-80.7350,1.5,39.41,11111222 
ENP,ioos.station.NOAA.NDBC:WRBF1:1,2019-09-10T06:00:00Z,25.0720,-80.7350,1.5,39.37,11111222 
ENP,ioos.station.NOAA.NDBC:WRBF1:1,2019-09-10T07:00:00Z,25.0720,-80.7350,1.5,39.31,11111222 
ENP,ioos.station.NOAA.NDBC:WRBF1:1,2019-09-10T08:00:00Z,25.0720,-80.7350,1.5,39.25,11111222 
ENP,ioos.station.NOAA.NDBC:WRBF1:1,2019-09-10T09:00:00Z,25.0720,-80.7350,1.5,39.18,11111222 
ENP,ioos.station.NOAA.NDBC:WRBF1:1,2019-09-10T10:00:00Z,25.0720,-80.7350,1.5,39.07,11111222 
ENP,ioos.station.NOAA.NDBC:WRBF1:1,2019-09-10T11:00:00Z,25.0720,-80.7350,1.5,38.88,11111222 
ENP,ioos.station.NOAA.NDBC:WRBF1:1,2019-09-10T12:00:00Z,25.0720,-80.7350,1.5,38.8,11111222 
ENP,ioos.station.NOAA.NDBC:WRBF1:1,2019-09-10T13:00:00Z,25.0720,-80.7350,1.5,38.72,11111222 
ENP,ioos.station.NOAA.NDBC:WRBF1:1,2019-09-10T14:00:00Z,25.0720,-80.7350,1.5,37.54,11111222 
ENP,ioos.station.NOAA.NDBC:WRBF1:1,2019-09-10T15:00:00Z,25.0720,-80.7350,1.5,37.57,11111222 
ENP,ioos.station.NOAA.NDBC:WRBF1:1,2019-09-10T16:00:00Z,25.0720,-80.7350,1.5,37.51,11111222 
ENP,ioos.station.NOAA.NDBC:WRBF1:1,2019-09-10T17:00:00Z,25.0720,-80.7350,1.5,37.49,11111222 
ENP,ioos.station.NOAA.NDBC:WRBF1:1,2019-09-10T18:00:00Z,25.0720,-80.7350,1.5,37.17,11111222 
ENP,ioos.station.NOAA.NDBC:WRBF1:1,2019-09-10T19:00:00Z,25.0720,-80.7350,1.5,36.97,11111222 
ENP,ioos.station.NOAA.NDBC:WRBF1:1,2019-09-10T20:00:00Z,25.0720,-80.7350,1.5,36.77,11111222 
ENP,ioos.station.NOAA.NDBC:WRBF1:1,2019-09-10T21:00:00Z,25.0720,-80.7350,1.5,37.1,11111222 
ENP,ioos.station.NOAA.NDBC:WRBF1:1,2019-09-10T22:00:00Z,25.0720,-80.7350,1.5,36.86,11111222 
ENP,ioos.station.NOAA.NDBC:WRBF1:1,2019-09-10T23:00:00Z,25.0720,-80.7350,1.5,36.92,11111222 
ENP,ioos.station.NOAA.NDBC:WRBF1:1,2019-09-11T00:00:00Z,25.0720,-80.7350,1.5,36.94,11111222 
ENP,ioos.station.NOAA.NDBC:WRBF1:1,2019-09-11T01:00:00Z,25.0720,-80.7350,1.5,36.91,11111222 
ENP,ioos.station.NOAA.NDBC:WRBF1:1,2019-09-11T02:00:00Z,25.0720,-80.7350,1.5,37.07,11111222 
ENP,ioos.station.NOAA.NDBC:WRBF1:1,2019-09-11T04:00:00Z,25.0720,-80.7350,1.5,37.74,11111222 
ENP,ioos.station.NOAA.NDBC:WRBF1:1,2019-09-11T05:00:00Z,25.0720,-80.7350,1.5,37.61,11111222 
ENP,ioos.station.NOAA.NDBC:WRBF1:1,2019-09-11T06:00:00Z,25.0720,-80.7350,1.5,37.56,11111222 
ENP,ioos.station.NOAA.NDBC:WRBF1:1,2019-09-11T07:00:00Z,25.0720,-80.7350,1.5,37.47,11111222 
ENP,ioos.station.NOAA.NDBC:WRBF1:1,2019-09-11T08:00:00Z,25.0720,-80.7350,1.5,37.12,11111222 
ENP,ioos.station.NOAA.NDBC:WRBF1:1,2019-09-11T09:00:00Z,25.0720,-80.7350,1.5,36.91,11111222 
ENP,ioos.station.NOAA.NDBC:WRBF1:1,2019-09-11T10:00:00Z,25.0720,-80.7350,1.5,36.87,11111222 
ENP,ioos.station.NOAA.NDBC:WRBF1:1,2019-09-11T11:00:00Z,25.0720,-80.7350,1.5,36.83,11111222 
ENP,ioos.station.NOAA.NDBC:WRBF1:1,2019-09-11T12:00:00Z,25.0720,-80.7350,1.5,36.8,11111222 
ENP,ioos.station.NOAA.NDBC:WRBF1:1,2019-09-11T13:00:00Z,25.0720,-80.7350,1.5,36.83,11111222 
ENP,ioos.station.NOAA.NDBC:WRBF1:1,2019-09-11T14:00:00Z,25.0720,-80.7350,1.5,36.95,11111222 
ENP,ioos.station.NOAA.NDBC:WRBF1:1,2019-09-11T15:00:00Z,25.0720,-80.7350,1.5,37.15,11111222 
ENP,ioos.station.NOAA.NDBC:WRBF1:1,2019-09-11T16:00:00Z,25.0720,-80.7350,1.5,37.16,11111222 
ENP,ioos.station.NOAA.NDBC:WRBF1:1,2019-09-11T17:00:00Z,25.0720,-80.7350,1.5,37.09,11111222 
ENP,ioos.station.NOAA.NDBC:WRBF1:1,2019-09-11T19:00:00Z,25.0720,-80.7350,1.5,37.14,11111222 
ENP,ioos.station.NOAA.NDBC:WRBF1:1,2019-09-11T20:00:00Z,25.0720,-80.7350,1.5,37.29,11111222 
ENP,ioos.station.NOAA.NDBC:WRBF1:1,2019-09-11T21:00:00Z,25.0720,-80.7350,1.5,37.21,11111222 
ENP,ioos.station.NOAA.NDBC:WRBF1:1,2019-09-11T22:00:00Z,25.0720,-80.7350,1.5,37.18,11111222 
ENP,ioos.station.NOAA.NDBC:WRBF1:1,2019-09-11T23:00:00Z,25.0720,-80.7350,1.5,37.18,11111222 
ENP,ioos.station.NOAA.NDBC:WRBF1:1,2019-09-12T00:00:00Z,25.0720,-80.7350,1.5,37.24,11111222 
ENP,ioos.station.NOAA.NDBC:WRBF1:1,2019-09-12T01:00:00Z,25.0720,-80.7350,1.5,37.37,11111222 
ENP,ioos.station.NOAA.NDBC:WRBF1:1,2019-09-12T02:00:00Z,25.0720,-80.7350,1.5,37.44,11111222 
ENP,ioos.station.NOAA.NDBC:WRBF1:1,2019-09-12T04:00:00Z,25.0720,-80.7350,1.5,37.44,11111222 
ENP,ioos.station.NOAA.NDBC:WRBF1:1,2019-09-12T05:00:00Z,25.0720,-80.7350,1.5,37.45,11111222 
ENP,ioos.station.NOAA.NDBC:WRBF1:1,2019-09-12T06:00:00Z,25.0720,-80.7350,1.5,37.5,11111222 
ENP,ioos.station.NOAA.NDBC:WRBF1:1,2019-09-12T07:00:00Z,25.0720,-80.7350,1.5,37.55,11111222 
ENP,ioos.station.NOAA.NDBC:WRBF1:1,2019-09-12T08:00:00Z,25.0720,-80.7350,1.5,37.32,11111222 
ENP,ioos.station.NOAA.NDBC:WRBF1:1,2019-09-12T09:00:00Z,25.0720,-80.7350,1.5,36.96,11111222 
ENP,ioos.station.NOAA.NDBC:WRBF1:1,2019-09-12T10:00:00Z,25.0720,-80.7350,1.5,36.8,11111222 
ENP,ioos.station.NOAA.NDBC:WRBF1:1,2019-09-12T11:00:00Z,25.0720,-80.7350,1.5,36.55,11111222 
ENP,ioos.station.NOAA.NDBC:WRBF1:1,2019-09-12T12:00:00Z,25.0720,-80.7350,1.5,36.64,11111222 
ENP,ioos.station.NOAA.NDBC:WRBF1:1,2019-09-12T13:00:00Z,25.0720,-80.7350,1.5,36.74,11111222 
ENP,ioos.station.NOAA.NDBC:WRBF1:1,2019-09-12T14:00:00Z,25.0720,-80.7350,1.5,36.31,11111222 
ENP,ioos.station.NOAA.NDBC:WRBF1:1,2019-09-12T15:00:00Z,25.0720,-80.7350,1.5,36.05,11111222 